sat.trackr.live / text

‹ back to catalog

STARLINK-34318

NORAD 64222 · 2025-117V

PAYLOAD ACTIVE UNKNOWN

§ Identity

Operator
Country
US
Launch date
2025-05-31
Launch site
AFWTR
Launch vehicle
Mass (kg)
RCS (m²)

Purposes: comms

External: N2YO · Heavens-Above · Gunter

§ Orbital elements

Epoch: 2026-05-25T02:27:48.992832Z

Period
94.10 min
Inclination
53.1612°
Eccentricity
0.0001168
Mean motion
15.30209650 rev/d
Perigee alt
474.4 km
Apogee alt
476.0 km
Semi-major
6,853.3 km
B*
4.7670e-4
RAAN
44.7563°
Arg perigee
75.3335°
Mean anomaly
284.7795°
Rev number
5,622

§ Raw data

STARLINK-343181 64222U 25117V   26145.10265038  .00013790  00000+0  47670-3 0  99912 64222  53.1612  44.7563 0001168  75.3335 284.7795 15.30209650 56225

JSON: /api/v1/satellites/64222 · /tle

For live sub-satellite position, see the globe view (requires WebGL).

§ Visibility from observer

Set your observer location to see the next 7 days of passes ≥ 10°. The values pass through the URL so the page stays shareable.

No JS? Fill the form by hand. The geolocation button needs JavaScript.